| time (UTC) | temp F | wind direction | speed MPH | gust MPH | rain 1hr in | rain 24hr in | rain mn in | humidity % | barometer mb |
| 20260507093530 | 63 | 0 | 0.0 | 0.0 | 0.13 | 1.78 | 0.87 | 95 | 1009.8 |
| 20260507093044 | 63 | 0 | 0.0 | 0.0 | 0.13 | 1.77 | 0.86 | 95 | 1009.9 |
| 20260507092531 | 63 | 0 | 0.0 | 0.0 | 0.13 | 1.76 | 0.85 | 95 | 1009.8 |
| 20260507092030 | 63 | 0 | 0.0 | 0.0 | 0.13 | 1.75 | 0.84 | 95 | 1010.0 |
| 20260507091545 | 63 | 0 | 0.0 | 0.0 | 0.13 | 1.74 | 0.83 | 95 | 1010.0 |
| 20260507091032 | 63 | 0 | 0.0 | 1.0 | 0.13 | 1.73 | 0.82 | 95 | 1010.1 |
| 20260507090534 | 63 | 0 | 0.0 | 1.0 | 0.14 | 1.72 | 0.81 | 95 | 1010.0 |
| 20260507090043 | 63 | 0 | 0.0 | 2.0 | 0.14 | 1.71 | 0.80 | 95 | 1010.2 |
| 20260507085533 | 63 | 0 | 0.0 | 2.0 | 0.14 | 1.70 | 0.79 | 95 | 1009.9 |
| 20260507085031 | 63 | 97 | 1.0 | 3.0 | 0.13 | 1.68 | 0.77 | 95 | 1009.7 |
| 20260507084545 | 63 | 97 | 1.0 | 3.0 | 0.14 | 1.67 | 0.76 | 95 | 1010.1 |
| 20260507084032 | 63 | 97 | 0.0 | 3.0 | 0.14 | 1.66 | 0.75 | 95 | 1010.5 |
| 20260507083532 | 63 | 0 | 0.0 | 1.0 | 0.14 | 1.65 | 0.74 | 95 | 1010.7 |
| 20260507083040 | 63 | 97 | 0.0 | 1.0 | 0.14 | 1.64 | 0.73 | 95 | 1010.8 |
| 20260507082532 | 63 | 0 | 0.0 | 0.0 | 0.14 | 1.63 | 0.72 | 95 | 1010.8 |
| 20260507082032 | 63 | 0 | 0.0 | 3.0 | 0.15 | 1.62 | 0.71 | 95 | 1010.8 |
| 20260507081541 | 63 | 0 | 0.0 | 3.0 | 0.15 | 1.61 | 0.70 | 95 | 1010.6 |
| 20260507081032 | 63 | 97 | 0.0 | 3.0 | 0.14 | 1.59 | 0.68 | 95 | 1010.4 |
| 20260507080531 | 63 | 0 | 0.0 | 2.0 | 0.14 | 1.58 | 0.67 | 95 | 1010.9 |
| 20260507080043 | 63 | 97 | 0.0 | 1.0 | 0.15 | 1.57 | 0.66 | 95 | 1010.7 |
| 20260507075532 | 63 | 0 | 0.0 | 1.0 | 0.15 | 1.56 | 0.65 | 95 | 1011.0 |
| 20260507075036 | 63 | 0 | 0.0 | 3.0 | 0.15 | 1.55 | 0.64 | 95 | 1010.9 |
| 20260507074543 | 63 | 0 | 0.0 | 4.0 | 0.14 | 1.53 | 0.62 | 95 | 1010.9 |
| 20260507074031 | 63 | 97 | 1.0 | 4.0 | 0.15 | 1.52 | 0.61 | 95 | 1010.8 |
| 20260507073532 | 63 | 73 | 0.0 | 3.0 | 0.15 | 1.51 | 0.60 | 95 | 1010.7 |
| 20260507073043 | 63 | 0 | 0.0 | 3.0 | 0.15 | 1.50 | 0.58 | 95 | 1011.0 |
| 20260507072535 | 63 | 273 | 1.0 | 4.0 | 0.15 | 1.48 | 0.57 | 95 | 1011.2 |
| 20260507072030 | 63 | 274 | 1.0 | 4.0 | 0.15 | 1.47 | 0.56 | 95 | 1011.5 |
| 20260507071542 | 63 | 40 | 0.0 | 5.0 | 0.16 | 1.46 | 0.55 | 95 | 1011.6 |
| 20260507071031 | 63 | 54 | 2.0 | 5.0 | 0.16 | 1.45 | 0.54 | 95 | 1011.5 |
| 20260507070533 | 63 | 61 | 2.0 | 5.0 | 0.16 | 1.44 | 0.52 | 95 | 1011.5 |
| 20260507070044 | 63 | 196 | 0.0 | 3.0 | 0.16 | 1.42 | 0.51 | 95 | 1011.6 |
| 20260507065531 | 63 | 196 | 0.0 | 3.0 | 0.16 | 1.41 | 0.50 | 95 | 1011.6 |
| 20260507065030 | 63 | 196 | 2.0 | 3.0 | 0.17 | 1.40 | 0.49 | 95 | 1011.3 |
| 20260507064541 | 63 | 0 | 0.0 | 3.0 | 0.17 | 1.39 | 0.48 | 95 | 1011.6 |
| 20260507064032 | 63 | 199 | 1.0 | 4.0 | 0.17 | 1.37 | 0.46 | 95 | 1011.8 |
| 20260507063531 | 63 | 0 | 0.0 | 4.0 | 0.17 | 1.36 | 0.45 | 95 | 1011.6 |
| 20260507063046 | 63 | 163 | 1.0 | 4.0 | 0.18 | 1.35 | 0.44 | 95 | 1011.6 |
| 20260507062530 | 63 | 0 | 1.0 | 5.0 | 0.17 | 1.33 | 0.42 | 95 | 1011.4 |
| 20260507062032 | 63 | 0 | 1.0 | 5.0 | 0.18 | 1.32 | 0.41 | 95 | 1011.6 |
| 20260507061546 | 63 | 46 | 2.0 | 5.0 | 0.17 | 1.30 | 0.39 | 94 | 1011.8 |
| 20260507061029 | 63 | 91 | 0.0 | 2.0 | 0.18 | 1.29 | 0.38 | 94 | 1011.9 |
| 20260507060531 | 63 | 0 | 0.0 | 3.0 | 0.17 | 1.27 | 0.36 | 95 | 1012.1 |
| 20260507060051 | 63 | 92 | 0.0 | 3.0 | 0.18 | 1.26 | 0.35 | 94 | 1012.1 |
| 20260507055534 | 63 | 92 | 1.0 | 3.0 | 0.19 | 1.25 | 0.34 | 95 | 1012.3 |
| 20260507055029 | 63 | 92 | 0.0 | 2.0 | 0.18 | 1.23 | 0.32 | 95 | 1012.4 |
| 20260507054547 | 63 | 92 | 0.0 | 3.0 | 0.19 | 1.22 | 0.31 | 94 | 1012.3 |
| 20260507054032 | 63 | 0 | 0.0 | 4.0 | 0.18 | 1.20 | 0.29 | 94 | 1012.4 |
| 20260507053530 | 63 | 0 | 0.0 | 6.0 | 0.19 | 1.19 | 0.28 | 94 | 1012.4 |
| 20260507053047 | 63 | 123 | 2.0 | 6.0 | 0.18 | 1.16 | 0.26 | 94 | 1012.1 |
| 20260507052530 | 63 | 128 | 1.0 | 4.0 | 0.19 | 1.16 | 0.25 | 94 | 1012.3 |
| 20260507052031 | 63 | 0 | 1.0 | 3.0 | 0.18 | 1.14 | 0.23 | 94 | 1012.7 |
| 20260507051549 | 63 | 0 | 0.0 | 3.0 | 0.17 | 1.12 | 0.21 | 94 | 1012.8 |
| 20260507051034 | 63 | 122 | 1.0 | 2.0 | 0.18 | 1.11 | 0.20 | 94 | 1012.7 |
| 20260507050531 | 63 | 122 | 0.0 | 2.0 | 0.17 | 1.09 | 0.18 | 94 | 1012.9 |
| 20260507050051 | 63 | 0 | 0.0 | 1.0 | 0.17 | 1.08 | 0.17 | 94 | 1013.1 |
| 20260507045530 | 63 | 122 | 0.0 | 3.0 | 0.16 | 1.05 | 0.15 | 94 | 1013.1 |
| 20260507045030 | 63 | 0 | 0.0 | 4.0 | 0.16 | 1.04 | 0.14 | 94 | 1013.0 |
| 20260507044552 | 63 | 130 | 2.0 | 4.0 | 0.15 | 1.03 | 0.12 | 94 | 1013.0 |
| 20260507044030 | 63 | 0 | 0.0 | 2.0 | 0.16 | 1.02 | 0.11 | 94 | 1013.5 |
| 20260507043530 | 63 | 0 | 0.0 | 3.0 | 0.15 | 1.00 | 0.09 | 94 | 1013.5 |
| 20260507043041 | 63 | 0 | 0.0 | 5.0 | 0.15 | 0.99 | 0.08 | 94 | 1013.3 |
| 20260507042530 | 63 | 129 | 2.0 | 5.0 | 0.14 | 0.97 | 0.06 | 94 | 1013.1 |
| 20260507042029 | 63 | 0 | 0.0 | 3.0 | 0.14 | 0.96 | 0.05 | 94 | 1013.0 |
| 20260507041541 | 63 | 127 | 0.0 | 4.0 | 0.14 | 0.95 | 0.04 | 94 | 1013.1 |
| 20260507041030 | 63 | 0 | 1.0 | 5.0 | 0.14 | 0.93 | 0.02 | 94 | 1013.1 |
| 20260507040531 | 63 | 0 | 2.0 | 7.0 | 0.14 | 0.92 | 0.01 | 94 | 1013.1 |
| 20260507040043 | 63 | 190 | 2.0 | 8.0 | 0.14 | 0.91 | 0.00 | 93 | 1013.2 |
| 20260507035527 | 63 | 124 | 2.0 | 8.0 | 0.14 | 0.90 | 0.90 | 94 | 1013.0 |
| 20260507035030 | 63 | 140 | 2.0 | 8.0 | 0.15 | 0.89 | 0.89 | 93 | 1013.3 |
| 20260507034544 | 63 | 148 | 3.0 | 8.0 | 0.14 | 0.87 | 0.87 | 93 | 1012.9 |
| 20260507034031 | 64 | 132 | 3.0 | 6.0 | 0.14 | 0.86 | 0.86 | 93 | 1012.8 |
| 20260507033530 | 64 | 123 | 1.0 | 6.0 | 0.14 | 0.85 | 0.85 | 94 | 1012.7 |
| 20260507033044 | 64 | 120 | 1.0 | 6.0 | 0.14 | 0.84 | 0.84 | 93 | 1012.3 |
| 20260507032529 | 64 | 103 | 2.0 | 6.0 | 0.15 | 0.83 | 0.83 | 93 | 1012.5 |
| 20260507032033 | 64 | 96 | 1.0 | 4.0 | 0.15 | 0.82 | 0.82 | 93 | 1012.7 |
| 20260507031541 | 64 | 96 | 2.0 | 4.0 | 0.14 | 0.80 | 0.80 | 93 | 1012.9 |
| 20260507031030 | 64 | 78 | 1.0 | 3.0 | 0.14 | 0.79 | 0.79 | 93 | 1013.4 |
| 20260507030538 | 64 | 352 | 1.0 | 3.0 | 0.13 | 0.78 | 0.78 | 93 | 1013.4 |
| 20260507030042 | 64 | 0 | 0.0 | 3.0 | 0.13 | 0.77 | 0.77 | 93 | 1013.8 |
| 20260507025530 | 64 | 329 | 0.0 | 3.0 | 0.12 | 0.75 | 0.75 | 93 | 1013.7 |
| 20260507025030 | 64 | 327 | 0.0 | 3.0 | 0.12 | 0.74 | 0.74 | 93 | 1013.7 |
| 20260507024543 | 64 | 321 | 1.0 | 4.0 | 0.12 | 0.73 | 0.73 | 93 | 1013.7 |
| 20260507024036 | 64 | 322 | 2.0 | 5.0 | 0.12 | 0.72 | 0.72 | 93 | 1013.9 |
| 20260507023532 | 64 | 9 | 2.0 | 5.0 | 0.12 | 0.71 | 0.71 | 92 | 1013.8 |
| 20260507023045 | 64 | 37 | 0.0 | 5.0 | 0.11 | 0.69 | 0.69 | 92 | 1013.6 |
| 20260507022534 | 64 | 24 | 2.0 | 4.0 | 0.11 | 0.68 | 0.68 | 92 | 1013.6 |
| 20260507022032 | 64 | 348 | 1.0 | 4.0 | 0.11 | 0.67 | 0.67 | 92 | 1013.7 |
| 20260507021540 | 65 | 259 | 0.0 | 8.0 | 0.11 | 0.66 | 0.66 | 92 | 1013.4 |
| 20260507021032 | 65 | 0 | 0.0 | 8.0 | 0.11 | 0.65 | 0.65 | 92 | 1012.9 |
| 20260507020531 | 65 | 337 | 2.0 | 10.0 | 0.12 | 0.64 | 0.64 | 92 | 1012.8 |
| 20260507020047 | 65 | 26 | 4.0 | 10.0 | 0.13 | 0.64 | 0.64 | 92 | 1012.7 |
| 20260507015534 | 65 | 27 | 4.0 | 8.0 | 0.13 | 0.63 | 0.63 | 92 | 1012.9 |
| 20260507015032 | 66 | 30 | 2.0 | 9.0 | 0.13 | 0.62 | 0.62 | 91 | 1013.0 |
| 20260507014538 | 66 | 34 | 2.0 | 9.0 | 0.14 | 0.61 | 0.61 | 91 | 1012.9 |
| 20260507014032 | 66 | 36 | 5.0 | 15.0 | 0.14 | 0.60 | 0.60 | 91 | 1012.9 |
| 20260507013536 | 67 | 335 | 2.0 | 15.0 | 0.14 | 0.58 | 0.58 | 92 | 1012.9 |
| 20260507013057 | 67 | 43 | 4.0 | 14.0 | 0.15 | 0.58 | 0.58 | 91 | 1012.3 |
| 20260507012533 | 68 | 31 | 5.0 | 15.0 | 0.15 | 0.57 | 0.57 | 90 | 1013.0 |
| 20260507012032 | 69 | 311 | 8.0 | 15.0 | 0.16 | 0.56 | 0.56 | 90 | 1013.4 |
| 20260507011543 | 70 | 330 | 4.0 | 8.0 | 0.16 | 0.55 | 0.55 | 92 | 1013.3 |
| 20260507011031 | 70 | 0 | 0.0 | 0.0 | 0.16 | 0.52 | 0.52 | 92 | 1013.0 |
| 20260507010533 | 70 | 0 | 0.0 | 0.0 | 0.17 | 0.52 | 0.52 | 92 | 1012.8 |
| 20260507010045 | 70 | 0 | 0.0 | 0.0 | 0.18 | 0.51 | 0.51 | 92 | 1012.6 |
| 20260507005533 | 70 | 0 | 0.0 | 0.0 | 0.19 | 0.50 | 0.50 | 92 | 1012.8 |
| 20260507005030 | 70 | 0 | 0.0 | 0.0 | 0.20 | 0.49 | 0.49 | 92 | 1012.7 |
| 20260507004549 | 70 | 0 | 0.0 | 0.0 | 0.20 | 0.47 | 0.47 | 91 | 1012.6 |
| 20260507004031 | 70 | 0 | 0.0 | 0.0 | 0.21 | 0.46 | 0.46 | 91 | 1012.5 |
| 20260507003531 | 70 | 0 | 0.0 | 0.0 | 0.23 | 0.45 | 0.45 | 91 | 1012.3 |
| 20260507003038 | 70 | 0 | 0.0 | 0.0 | 0.23 | 0.43 | 0.43 | 91 | 1012.3 |
| 20260507002531 | 70 | 0 | 0.0 | 0.0 | 0.25 | 0.42 | 0.42 | 91 | 1012.2 |
| 20260507002029 | 70 | 0 | 0.0 | 0.0 | 0.26 | 0.40 | 0.40 | 91 | 1012.2 |
| 20260507001544 | 70 | 0 | 0.0 | 0.0 | 0.27 | 0.38 | 0.38 | 91 | 1012.2 |
| 20260507001029 | 70 | 0 | 0.0 | 0.0 | 0.29 | 0.37 | 0.37 | 90 | 1012.8 |
| 20260507000530 | 70 | 0 | 0.0 | 0.0 | 0.31 | 0.35 | 0.35 | 90 | 1012.5 |
| 20260507000051 | 70 | 0 | 0.0 | 2.0 | 0.31 | 0.33 | 0.33 | 90 | 1012.4 |
| 20260506235531 | 70 | 0 | 0.0 | 3.0 | 0.31 | 0.31 | 0.31 | 90 | 1012.4 |
| 20260506235030 | 70 | 220 | 0.0 | 6.0 | 0.29 | 0.29 | 0.29 | 90 | 1012.5 |
| 20260506234542 | 70 | 220 | 2.0 | 7.0 | 0.27 | 0.27 | 0.27 | 89 | 1012.6 |
| 20260506234030 | 70 | 200 | 3.0 | 8.0 | 0.24 | 0.24 | 0.24 | 89 | 1012.3 |
| 20260506233529 | 70 | 220 | 4.0 | 8.0 | 0.22 | 0.22 | 0.22 | 89 | 1012.4 |
| 20260506233039 | 70 | 200 | 3.0 | 8.0 | 0.19 | 0.19 | 0.19 | 88 | 1012.3 |
| 20260506232528 | 70 | 208 | 2.0 | 7.0 | 0.16 | 0.16 | 0.16 | 87 | 1012.3 |
| 20260506232028 | 70 | 234 | 4.0 | 16.0 | 0.14 | 0.14 | 0.14 | 86 | 1012.6 |
| 20260506231540 | 71 | 269 | 3.0 | 21.0 | 0.10 | 0.10 | 0.10 | 85 | 1012.5 |
| 20260506231027 | 72 | 254 | 9.0 | 21.0 | 0.07 | 0.07 | 0.07 | 83 | 1012.5 |
| 20260506230527 | 75 | 204 | 7.0 | 21.0 | 0.04 | 0.04 | 0.04 | 81 | 1013.3 |
| 20260506230039 | 76 | 218 | 3.0 | 9.0 | 0.02 | 0.02 | 0.02 | 77 | 1012.3 |
| 20260506225529 | 76 | 213 | 3.0 | 9.0 | 0.00 | 0.00 | 0.00 | 75 | 1011.6 |
| 20260506225029 | 77 | 224 | 3.0 | 6.0 | 0.00 | 0.00 | 0.00 | 73 | 1011.6 |
| 20260506224556 | 77 | 207 | 3.0 | 6.0 | 0.00 | 0.00 | 0.00 | 73 | 1011.5 |
| 20260506224028 | 77 | 223 | 2.0 | 9.0 | 0.00 | 0.00 | 0.00 | 73 | 1011.5 |
| 20260506223529 | 77 | 0 | 2.0 | 9.0 | 0.00 | 0.00 | 0.00 | 72 | 1011.5 |
| 20260506223041 | 77 | 207 | 2.0 | 7.0 | 0.00 | 0.00 | 0.00 | 72 | 1011.9 |
| 20260506222533 | 77 | 211 | 3.0 | 7.0 | 0.00 | 0.00 | 0.00 | 72 | 1012.1 |
| 20260506222029 | 77 | 221 | 1.0 | 9.0 | 0.00 | 0.00 | 0.00 | 71 | 1012.2 |
| 20260506221538 | 77 | 225 | 3.0 | 9.0 | 0.00 | 0.00 | 0.00 | 71 | 1012.3 |
| 20260506221029 | 77 | 225 | 2.0 | 9.0 | 0.00 | 0.00 | 0.00 | 70 | 1012.1 |
| 20260506220529 | 77 | 238 | 3.0 | 9.0 | 0.00 | 0.00 | 0.00 | 70 | 1012.0 |
| 20260506220044 | 78 | 194 | 4.0 | 9.0 | 0.00 | 0.00 | 0.00 | 70 | 1012.1 |
| 20260506215529 | 78 | 233 | 3.0 | 10.0 | 0.00 | 0.00 | 0.00 | 69 | 1012.1 |
| 20260506215029 | 78 | 207 | 5.0 | 10.0 | 0.00 | 0.00 | 0.00 | 69 | 1012.1 |
| 20260506214542 | 78 | 219 | 4.0 | 15.0 | 0.00 | 0.00 | 0.00 | 69 | 1012.1 |
| 20260506214028 | 78 | 232 | 5.0 | 15.0 | 0.00 | 0.00 | 0.00 | 68 | 1012.0 |
| 20260506213534 | 78 | 223 | 8.0 | 15.0 | 0.00 | 0.00 | 0.00 | 68 | 1012.0 |
| 20260506213044 | 78 | 192 | 7.0 | 16.0 | 0.00 | 0.00 | 0.00 | 68 | 1012.0 |
| 20260506212534 | 78 | 209 | 6.0 | 16.0 | 0.00 | 0.00 | 0.00 | 68 | 1011.9 |
| 20260506212033 | 79 | 218 | 6.0 | 13.0 | 0.00 | 0.00 | 0.00 | 68 | 1011.9 |
| 20260506211540 | 79 | 210 | 3.0 | 14.0 | 0.00 | 0.00 | 0.00 | 68 | 1011.8 |
| 20260506211032 | 79 | 224 | 5.0 | 14.0 | 0.00 | 0.00 | 0.00 | 68 | 1011.7 |
| 20260506210530 | 78 | 199 | 7.0 | 14.0 | 0.00 | 0.00 | 0.00 | 68 | 1011.8 |
| 20260506210041 | 78 | 187 | 4.0 | 12.0 | 0.00 | 0.00 | 0.00 | 68 | 1012.1 |
| 20260506205532 | 78 | 227 | 5.0 | 12.0 | 0.00 | 0.00 | 0.00 | 67 | 1012.1 |
| 20260506205032 | 79 | 185 | 4.0 | 10.0 | 0.00 | 0.00 | 0.00 | 67 | 1012.1 |
| 20260506204539 | 79 | 193 | 2.0 | 12.0 | 0.00 | 0.00 | 0.00 | 67 | 1012.2 |
| 20260506204032 | 79 | 204 | 6.0 | 13.0 | 0.00 | 0.00 | 0.00 | 66 | 1012.2 |
| 20260506203531 | 79 | 260 | 7.0 | 15.0 | 0.00 | 0.00 | 0.00 | 65 | 1012.3 |
| 20260506203047 | 79 | 193 | 8.0 | 17.0 | 0.00 | 0.00 | 0.00 | 65 | 1012.4 |
| 20260506202534 | 80 | 221 | 9.0 | 17.0 | 0.00 | 0.00 | 0.00 | 64 | 1012.6 |
| 20260506202033 | 80 | 205 | 7.0 | 17.0 | 0.00 | 0.00 | 0.00 | 64 | 1012.7 |
| 20260506201542 | 80 | 205 | 7.0 | 17.0 | 0.00 | 0.00 | 0.00 | 64 | 1012.7 |
| 20260506201034 | 80 | 198 | 4.0 | 12.0 | 0.00 | 0.00 | 0.00 | 64 | 1012.7 |
| 20260506200531 | 81 | 192 | 6.0 | 14.0 | 0.00 | 0.00 | 0.00 | 64 | 1012.6 |
| 20260506200041 | 80 | 234 | 5.0 | 14.0 | 0.00 | 0.00 | 0.00 | 64 | 1012.8 |
| 20260506195532 | 80 | 199 | 5.0 | 14.0 | 0.00 | 0.00 | 0.00 | 64 | 1012.7 |
| 20260506195031 | 80 | 200 | 7.0 | 13.0 | 0.00 | 0.00 | 0.00 | 64 | 1012.9 |
| 20260506194555 | 80 | 223 | 5.0 | 13.0 | 0.00 | 0.00 | 0.00 | 64 | 1012.9 |
| 20260506194035 | 80 | 150 | 4.0 | 16.0 | 0.00 | 0.00 | 0.00 | 65 | 1013.0 |
| 20260506193536 | 80 | 190 | 7.0 | 16.0 | 0.00 | 0.00 | 0.00 | 64 | 1013.0 |
| 20260506193037 | 80 | 206 | 5.0 | 12.0 | 0.00 | 0.00 | 0.00 | 65 | 1013.1 |
| 20260506192532 | 79 | 235 | 4.0 | 11.0 | 0.00 | 0.00 | 0.00 | 65 | 1013.2 |
| 20260506192032 | 80 | 213 | 6.0 | 12.0 | 0.00 | 0.00 | 0.00 | 65 | 1013.3 |
| 20260506191545 | 79 | 209 | 5.0 | 14.0 | 0.00 | 0.00 | 0.00 | 65 | 1013.3 |
| 20260506191033 | 79 | 214 | 6.0 | 14.0 | 0.00 | 0.00 | 0.00 | 66 | 1013.4 |
| 20260506190535 | 78 | 202 | 4.0 | 10.0 | 0.00 | 0.00 | 0.00 | 67 | 1013.6 |
| 20260506190044 | 78 | 209 | 4.0 | 8.0 | 0.00 | 0.00 | 0.00 | 67 | 1013.8 |
| 20260506185531 | 78 | 202 | 4.0 | 11.0 | 0.00 | 0.00 | 0.00 | 67 | 1013.8 |
| 20260506185030 | 78 | 205 | 4.0 | 14.0 | 0.00 | 0.00 | 0.00 | 66 | 1013.8 |
| 20260506184539 | 79 | 205 | 7.0 | 14.0 | 0.00 | 0.00 | 0.00 | 65 | 1014.0 |
| 20260506184032 | 79 | 212 | 5.0 | 14.0 | 0.00 | 0.00 | 0.00 | 65 | 1014.0 |
| 20260506183532 | 79 | 177 | 6.0 | 11.0 | 0.00 | 0.00 | 0.00 | 66 | 1014.1 |
| 20260506183038 | 79 | 229 | 2.0 | 11.0 | 0.00 | 0.00 | 0.00 | 66 | 1014.2 |
| 20260506182531 | 79 | 242 | 4.0 | 11.0 | 0.00 | 0.00 | 0.00 | 65 | 1014.1 |
| 20260506182034 | 79 | 195 | 5.0 | 10.0 | 0.00 | 0.00 | 0.00 | 65 | 1014.3 |
| 20260506181546 | 79 | 178 | 5.0 | 10.0 | 0.00 | 0.00 | 0.00 | 64 | 1014.3 |
| 20260506181031 | 80 | 221 | 6.0 | 11.0 | 0.00 | 0.00 | 0.00 | 64 | 1014.3 |
| 20260506180532 | 80 | 219 | 7.0 | 13.0 | 0.00 | 0.00 | 0.00 | 64 | 1014.3 |
| 20260506180050 | 80 | 237 | 7.0 | 15.0 | 0.00 | 0.00 | 0.00 | 63 | 1014.3 |
| 20260506175536 | 80 | 219 | 7.0 | 14.0 | 0.00 | 0.00 | 0.00 | 64 | 1014.2 |
| 20260506175030 | 80 | 210 | 5.0 | 14.0 | 0.00 | 0.00 | 0.00 | 65 | 1014.1 |
| 20260506174540 | 79 | 186 | 7.0 | 18.0 | 0.00 | 0.00 | 0.00 | 65 | 1014.0 |
| 20260506174032 | 79 | 247 | 7.0 | 18.0 | 0.00 | 0.00 | 0.00 | 65 | 1014.0 |
| 20260506173531 | 79 | 215 | 7.0 | 13.0 | 0.00 | 0.00 | 0.00 | 65 | 1014.1 |
| 20260506173048 | 79 | 214 | 2.0 | 10.0 | 0.00 | 0.00 | 0.00 | 66 | 1014.0 |
| 20260506172531 | 79 | 191 | 6.0 | 10.0 | 0.00 | 0.00 | 0.00 | 65 | 1014.0 |
| 20260506172030 | 79 | 197 | 4.0 | 13.0 | 0.00 | 0.00 | 0.00 | 66 | 1014.0 |
| 20260506171552 | 79 | 211 | 6.0 | 16.0 | 0.00 | 0.00 | 0.00 | 65 | 1014.0 |
| 20260506171035 | 79 | 217 | 8.0 | 16.0 | 0.00 | 0.00 | 0.00 | 65 | 1013.9 |
| 20260506170533 | 79 | 233 | 4.0 | 12.0 | 0.00 | 0.00 | 0.00 | 66 | 1014.0 |
| 20260506170040 | 79 | 207 | 4.0 | 12.0 | 0.00 | 0.00 | 0.00 | 66 | 1014.0 |
| 20260506165534 | 79 | 191 | 3.0 | 12.0 | 0.00 | 0.00 | 0.00 | 67 | 1014.1 |
| 20260506165035 | 78 | 213 | 4.0 | 16.0 | 0.00 | 0.00 | 0.00 | 67 | 1014.1 |
| 20260506164541 | 78 | 226 | 6.0 | 16.0 | 0.00 | 0.00 | 0.00 | 67 | 1014.1 |
| 20260506164034 | 78 | 193 | 8.0 | 16.0 | 0.00 | 0.00 | 0.00 | 67 | 1014.2 |
| 20260506163529 | 78 | 186 | 6.0 | 15.0 | 0.00 | 0.00 | 0.00 | 68 | 1014.2 |
| 20260506163049 | 78 | 213 | 8.0 | 15.0 | 0.00 | 0.00 | 0.00 | 69 | 1014.2 |
| 20260506162532 | 76 | 203 | 5.0 | 13.0 | 0.00 | 0.00 | 0.00 | 71 | 1014.2 |
| 20260506162033 | 75 | 131 | 4.0 | 10.0 | 0.00 | 0.00 | 0.00 | 72 | 1014.1 |
| 20260506161540 | 74 | 199 | 4.0 | 9.0 | 0.00 | 0.00 | 0.00 | 74 | 1014.3 |
| 20260506161031 | 74 | 189 | 4.0 | 11.0 | 0.00 | 0.00 | 0.00 | 75 | 1014.6 |
| 20260506160531 | 73 | 231 | 5.0 | 11.0 | 0.00 | 0.00 | 0.00 | 75 | 1014.7 |
| 20260506160044 | 73 | 215 | 5.0 | 11.0 | 0.00 | 0.00 | 0.00 | 76 | 1014.7 |
| 20260506155531 | 72 | 216 | 6.0 | 11.0 | 0.00 | 0.00 | 0.00 | 77 | 1014.9 |
| 20260506155031 | 71 | 205 | 4.0 | 9.0 | 0.00 | 0.00 | 0.00 | 77 | 1015.1 |
| 20260506154542 | 71 | 226 | 3.0 | 8.0 | 0.00 | 0.00 | 0.00 | 78 | 1015.1 |
| 20260506154032 | 70 | 219 | 3.0 | 9.0 | 0.00 | 0.00 | 0.00 | 79 | 1015.1 |
| 20260506153531 | 70 | 243 | 4.0 | 9.0 | 0.00 | 0.00 | 0.00 | 79 | 1015.1 |
| 20260506153043 | 70 | 244 | 4.0 | 9.0 | 0.00 | 0.00 | 0.00 | 81 | 1015.1 |
| 20260506152532 | 69 | 202 | 2.0 | 6.0 | 0.00 | 0.00 | 0.00 | 81 | 1015.3 |
| 20260506152031 | 69 | 205 | 2.0 | 8.0 | 0.00 | 0.00 | 0.00 | 81 | 1015.4 |
| 20260506151551 | 69 | 205 | 2.0 | 10.0 | 0.00 | 0.00 | 0.00 | 82 | 1015.7 |
| 20260506151032 | 68 | 255 | 4.0 | 10.0 | 0.00 | 0.00 | 0.00 | 81 | 1015.8 |
| 20260506150532 | 68 | 214 | 3.0 | 7.0 | 0.00 | 0.00 | 0.00 | 81 | 1015.3 |
| 20260506150042 | 68 | 207 | 4.0 | 9.0 | 0.00 | 0.00 | 0.00 | 81 | 1015.2 |
| 20260506145533 | 68 | 221 | 4.0 | 11.0 | 0.00 | 0.00 | 0.00 | 81 | 1015.5 |
| 20260506145032 | 69 | 192 | 4.0 | 11.0 | 0.00 | 0.00 | 0.00 | 80 | 1015.6 |
| 20260506144559 | 69 | 220 | 5.0 | 9.0 | 0.00 | 0.00 | 0.00 | 79 | 1015.6 |
| 20260506144033 | 69 | 234 | 4.0 | 9.0 | 0.00 | 0.00 | 0.00 | 79 | 1015.5 |
| 20260506143533 | 69 | 227 | 3.0 | 10.0 | 0.00 | 0.00 | 0.00 | 78 | 1015.3 |
| 20260506143038 | 69 | 236 | 4.0 | 10.0 | 0.00 | 0.00 | 0.00 | 77 | 1015.4 |
| 20260506142531 | 69 | 208 | 3.0 | 14.0 | 0.00 | 0.00 | 0.00 | 77 | 1015.3 |
| 20260506142030 | 69 | 238 | 6.0 | 14.0 | 0.00 | 0.00 | 0.00 | 77 | 1015.3 |
| 20260506141541 | 69 | 250 | 3.0 | 13.0 | 0.00 | 0.00 | 0.00 | 77 | 1015.3 |
| 20260506141034 | 69 | 227 | 5.0 | 13.0 | 0.00 | 0.00 | 0.00 | 77 | 1015.2 |
| 20260506140531 | 69 | 215 | 4.0 | 14.0 | 0.00 | 0.00 | 0.00 | 77 | 1015.2 |
| 20260506140055 | 70 | 204 | 5.0 | 14.0 | 0.00 | 0.00 | 0.00 | 77 | 1015.1 |
| 20260506135531 | 70 | 214 | 5.0 | 13.0 | 0.00 | 0.00 | 0.00 | 77 | 1014.8 |
| 20260506135031 | 70 | 202 | 6.0 | 12.0 | 0.00 | 0.00 | 0.00 | 77 | 1014.7 |
| 20260506134544 | 70 | 207 | 5.0 | 13.0 | 0.00 | 0.00 | 0.00 | 77 | 1014.5 |
| 20260506134031 | 70 | 219 | 5.0 | 13.0 | 0.00 | 0.00 | 0.00 | 77 | 1014.2 |
| 20260506133531 | 69 | 200 | 2.0 | 14.0 | 0.00 | 0.00 | 0.00 | 78 | 1014.3 |
| 20260506133045 | 69 | 223 | 5.0 | 14.0 | 0.00 | 0.00 | 0.00 | 78 | 1014.3 |
| 20260506132530 | 69 | 202 | 6.0 | 13.0 | 0.00 | 0.00 | 0.00 | 78 | 1014.3 |
| 20260506132031 | 69 | 205 | 4.0 | 11.0 | 0.00 | 0.00 | 0.00 | 78 | 1014.2 |
| 20260506131543 | 69 | 187 | 6.0 | 12.0 | 0.00 | 0.00 | 0.00 | 78 | 1014.2 |
| 20260506131031 | 68 | 182 | 6.0 | 12.0 | 0.00 | 0.00 | 0.00 | 78 | 1014.3 |
| 20260506130530 | 68 | 195 | 3.0 | 11.0 | 0.00 | 0.00 | 0.00 | 79 | 1014.2 |
| 20260506130045 | 68 | 203 | 4.0 | 11.0 | 0.00 | 0.00 | 0.00 | 79 | 1014.1 |
| 20260506125531 | 68 | 221 | 4.0 | 11.0 | 0.00 | 0.00 | 0.00 | 79 | 1014.1 |
| 20260506125031 | 68 | 207 | 5.0 | 11.0 | 0.00 | 0.00 | 0.00 | 79 | 1014.1 |
| 20260506124541 | 68 | 213 | 4.0 | 9.0 | 0.00 | 0.00 | 0.00 | 80 | 1014.2 |
| 20260506124028 | 68 | 200 | 2.0 | 9.0 | 0.00 | 0.00 | 0.00 | 80 | 1014.1 |
| 20260506123532 | 67 | 209 | 4.0 | 9.0 | 0.00 | 0.00 | 0.00 | 80 | 1014.1 |
| 20260506123050 | 67 | 0 | 2.0 | 8.0 | 0.00 | 0.00 | 0.00 | 80 | 1014.0 |
| 20260506122532 | 67 | 165 | 3.0 | 9.0 | 0.00 | 0.00 | 0.00 | 80 | 1014.0 |
| 20260506122031 | 67 | 210 | 5.0 | 9.0 | 0.00 | 0.00 | 0.00 | 80 | 1014.0 |
| 20260506121537 | 67 | 225 | 3.0 | 7.0 | 0.00 | 0.00 | 0.00 | 80 | 1014.2 |
| 20260506121033 | 67 | 223 | 3.0 | 7.0 | 0.00 | 0.00 | 0.00 | 80 | 1014.1 |
| 20260506120533 | 67 | 217 | 3.0 | 9.0 | 0.00 | 0.00 | 0.00 | 80 | 1014.1 |
| 20260506120050 | 67 | 224 | 3.0 | 9.0 | 0.00 | 0.00 | 0.00 | 80 | 1013.8 |
| 20260506115532 | 67 | 189 | 3.0 | 9.0 | 0.00 | 0.00 | 0.00 | 80 | 1013.8 |
| 20260506115031 | 67 | 191 | 4.0 | 8.0 | 0.00 | 0.00 | 0.00 | 80 | 1013.9 |
| 20260506114542 | 67 | 196 | 4.0 | 10.0 | 0.00 | 0.00 | 0.00 | 80 | 1014.0 |
| 20260506114031 | 67 | 182 | 4.0 | 10.0 | 0.00 | 0.00 | 0.00 | 80 | 1013.8 |
| 20260506113532 | 67 | 196 | 3.0 | 9.0 | 0.00 | 0.00 | 0.00 | 80 | 1013.9 |
| 20260506113047 | 67 | 204 | 4.0 | 9.0 | 0.00 | 0.00 | 0.00 | 80 | 1013.7 |
| 20260506112530 | 67 | 222 | 3.0 | 9.0 | 0.00 | 0.00 | 0.00 | 80 | 1013.6 |
| 20260506112031 | 67 | 209 | 3.0 | 10.0 | 0.00 | 0.00 | 0.00 | 80 | 1013.4 |
| 20260506111537 | 67 | 211 | 4.0 | 11.0 | 0.00 | 0.00 | 0.00 | 80 | 1013.5 |
| 20260506111033 | 67 | 195 | 4.0 | 11.0 | 0.00 | 0.00 | 0.00 | 80 | 1013.5 |
| 20260506110533 | 67 | 217 | 3.0 | 10.0 | 0.00 | 0.00 | 0.00 | 80 | 1013.5 |
| 20260506110038 | 67 | 211 | 3.0 | 8.0 | 0.00 | 0.00 | 0.00 | 81 | 1013.4 |
| 20260506105530 | 67 | 193 | 3.0 | 7.0 | 0.00 | 0.00 | 0.00 | 80 | 1013.4 |
| 20260506105031 | 67 | 191 | 3.0 | 7.0 | 0.00 | 0.00 | 0.00 | 80 | 1013.5 |
| 20260506104549 | 67 | 211 | 4.0 | 7.0 | 0.00 | 0.00 | 0.00 | 80 | 1013.5 |
| 20260506104032 | 67 | 207 | 2.0 | 8.0 | 0.00 | 0.00 | 0.00 | 80 | 1013.3 |
| 20260506103531 | 67 | 202 | 2.0 | 8.0 | 0.00 | 0.00 | 0.00 | 79 | 1013.2 |
| 20260506103043 | 67 | 251 | 3.0 | 8.0 | 0.00 | 0.00 | 0.00 | 79 | 1013.2 |
| 20260506102529 | 67 | 216 | 4.0 | 8.0 | 0.00 | 0.00 | 0.00 | 79 | 1013.1 |
| 20260506102031 | 67 | 230 | 3.0 | 10.0 | 0.00 | 0.00 | 0.00 | 79 | 1013.0 |
| 20260506101547 | 67 | 232 | 4.0 | 10.0 | 0.00 | 0.00 | 0.00 | 78 | 1013.0 |
| 20260506101028 | 67 | 217 | 5.0 | 11.0 | 0.00 | 0.00 | 0.00 | 78 | 1013.1 |
| 20260506100531 | 67 | 195 | 5.0 | 11.0 | 0.00 | 0.00 | 0.00 | 78 | 1012.9 |
| 20260506100040 | 67 | 194 | 5.0 | 11.0 | 0.00 | 0.00 | 0.00 | 78 | 1012.7 |
| 20260506095528 | 67 | 223 | 5.0 | 10.0 | 0.00 | 0.00 | 0.00 | 77 | 1012.7 |
| 20260506095033 | 67 | 215 | 4.0 | 12.0 | 0.00 | 0.00 | 0.00 | 77 | 1012.7 |
| 20260506094536 | 67 | 182 | 7.0 | 12.0 | 0.00 | 0.00 | 0.00 | 77 | 1012.4 |
| 20260506094031 | 67 | 204 | 5.0 | 10.0 | 0.00 | 0.00 | 0.00 | 76 | 1012.2 |